Terminal Aerodrome Forecast
Issued by NWS Twin Cities, MN

Home | Current Version | Previous Version | Text Only | Print | Product List | Glossary On
Versions: 1 2 3 4 5 6 7 8 9 10 11 12 13 14 15 16 17 18 19 20 21
095
FTUS43 KMPX 241735
TAFSTC
TAF
KSTC 241735Z 2418/2518 36015G25KT P6SM BKN120
     FM242200 34014G22KT P6SM OVC150
     FM250900 32012KT P6SM SCT200=

USA.gov is the U.S. government's official web portal to all federal, state and local government web resources and services.